SVA704 OEJN-OPKC

Flight info

Callsign SVA704
Flight time 3h 29m
Altitude 39000
Route EGREP T532 KODIS Y214 RAPMA/N0446F290 Y214 KUTNA M440 MIDGU/N0472F390 M440 TULBU G652 SODEB G216 LAKIV
Aircraft B77W/H-SDE2E3FGHIRWXY/L

Departure

Time 2026-05-08 21:04
Airport King Abdulaziz International Airport (OEJN)

Arrival

Time 2026-05-09 00:33
Airport Jinnah International Airport (OPKC)
Time Latitude Longitude Altitude Speed Heading
2026-05-08 20:41 21.66648 39.17046 35 ft 0 kts 69°
2026-05-08 20:56 21.66640 39.17023 35 ft 4 kts 70°
2026-05-08 20:56 21.66630 39.16996 33 ft 4 kts 70°
2026-05-08 20:56 21.66622 39.16971 33 ft 4 kts 74°
2026-05-08 20:56 21.66622 39.16949 33 ft 4 kts 141°
2026-05-08 20:57 21.66645 39.16937 32 ft 4 kts 161°
2026-05-08 20:57 21.66651 39.16935 35 ft 0 kts 159°
2026-05-08 21:00 21.66645 39.16937 35 ft 4 kts 159°
2026-05-08 21:00 21.66593 39.16958 35 ft 10 kts 160°
2026-05-08 21:00 21.66528 39.16983 35 ft 10 kts 159°
2026-05-08 21:01 21.66459 39.17010 35 ft 11 kts 164°
2026-05-08 21:01 21.66382 39.17015 35 ft 11 kts 186°
2026-05-08 21:01 21.66310 39.16982 35 ft 12 kts 225°
2026-05-08 21:01 21.66276 39.16903 35 ft 12 kts 249°
2026-05-08 21:02 21.66247 39.16822 35 ft 12 kts 249°
2026-05-08 21:02 21.66219 39.16740 36 ft 12 kts 249°
2026-05-08 21:02 21.66190 39.16657 36 ft 12 kts 249°
2026-05-08 21:02 21.66160 39.16572 35 ft 10 kts 249°
2026-05-08 21:03 21.66151 39.16501 35 ft 10 kts 290°
2026-05-08 21:03 21.66207 39.16458 35 ft 10 kts 336°
2026-05-08 21:03 21.66231 39.16447 35 ft 0 kts 338°
2026-05-08 21:03 21.66248 39.16440 35 ft 15 kts 339°
2026-05-08 21:04 21.66732 39.16250 45 ft 138 kts 340°
2026-05-08 21:04 21.67936 39.15783 754 ft 199 kts 340°
2026-05-08 21:04 21.69222 39.15283 2387 ft 192 kts 341°
2026-05-08 21:04 21.70542 39.14763 2923 ft 218 kts 340°
2026-05-08 21:05 21.72094 39.14145 3216 ft 253 kts 340°
2026-05-08 21:05 21.73764 39.13480 3976 ft 265 kts 340°
2026-05-08 21:05 21.75507 39.12785 4788 ft 269 kts 340°
2026-05-08 21:05 21.77280 39.12082 5508 ft 272 kts 340°
2026-05-08 21:06 21.79079 39.11371 6483 ft 278 kts 340°
2026-05-08 21:06 21.80930 39.10684 7301 ft 283 kts 347°
2026-05-08 21:06 21.82911 39.10773 8046 ft 293 kts 20°
2026-05-08 21:06 21.84583 39.12009 8946 ft 295 kts 49°
2026-05-08 21:07 21.85912 39.13675 9738 ft 302 kts 49°
2026-05-08 21:07 21.87327 39.15373 10601 ft 308 kts 48°
2026-05-08 21:07 21.88843 39.17156 10990 ft 337 kts 48°
2026-05-08 21:07 21.90508 39.19097 11231 ft 367 kts 48°
2026-05-08 21:08 21.92265 39.21129 11938 ft 381 kts 47°
2026-05-08 21:08 21.94108 39.23250 12804 ft 391 kts 47°
2026-05-08 21:08 21.95994 39.25414 13684 ft 401 kts 47°
2026-05-08 21:08 21.97926 39.27625 14632 ft 404 kts 46°
2026-05-08 21:09 21.99860 39.29839 15732 ft 404 kts 46°
2026-05-08 21:09 22.01765 39.32018 16807 ft 406 kts 45°
2026-05-08 21:09 22.03711 39.34245 17812 ft 410 kts 45°
2026-05-08 21:09 22.05682 39.36501 18663 ft 414 kts 45°
2026-05-08 21:10 22.07677 39.38785 19456 ft 419 kts 44°
2026-05-08 21:10 22.09665 39.41064 20302 ft 423 kts 44°
2026-05-08 21:10 22.11693 39.43391 21143 ft 427 kts 44°
2026-05-08 21:10 22.13738 39.45737 21983 ft 430 kts 44°
2026-05-08 21:11 22.15799 39.48103 22806 ft 435 kts 44°
2026-05-08 21:11 22.17890 39.50504 23600 ft 440 kts 44°
2026-05-08 21:11 22.19992 39.52921 24221 ft 445 kts 44°
2026-05-08 21:11 22.22128 39.55377 24818 ft 451 kts 44°
2026-05-08 21:12 22.24288 39.57862 25432 ft 456 kts 44°
2026-05-08 21:12 22.26475 39.60380 25989 ft 463 kts 44°
2026-05-08 21:12 22.28656 39.62892 26565 ft 468 kts 44°
2026-05-08 21:12 22.30868 39.65441 27211 ft 471 kts 44°
2026-05-08 21:13 22.33124 39.68042 27818 ft 476 kts 44°
2026-05-08 21:13 22.35409 39.70679 28394 ft 482 kts 44°
2026-05-08 21:13 22.37719 39.73345 28962 ft 487 kts 44°
2026-05-08 21:13 22.40013 39.75996 29508 ft 491 kts 44°
2026-05-08 21:14 22.42370 39.78719 30069 ft 496 kts 44°
2026-05-08 21:14 22.44741 39.81460 30438 ft 502 kts 44°
2026-05-08 21:14 22.47185 39.84209 30704 ft 509 kts 41°
2026-05-08 21:14 22.49785 39.86760 31021 ft 513 kts 38°
2026-05-08 21:15 22.52464 39.89292 31480 ft 514 kts 38°
2026-05-08 21:15 22.55193 39.91851 32006 ft 514 kts 38°
2026-05-08 21:15 22.57899 39.94395 32467 ft 517 kts 38°
2026-05-08 21:15 22.60613 39.96961 32847 ft 520 kts 38°
2026-05-08 21:16 22.63342 39.99557 33279 ft 522 kts 39°
2026-05-08 21:16 22.66073 40.02167 33696 ft 524 kts 39°
2026-05-08 21:16 22.68817 40.04793 34095 ft 527 kts 39°
2026-05-08 21:16 22.71573 40.07434 34423 ft 530 kts 39°
2026-05-08 21:17 22.74317 40.10065 34720 ft 533 kts 39°
2026-05-08 21:17 22.77105 40.12738 35048 ft 535 kts 39°
2026-05-08 21:17 22.79904 40.15423 35359 ft 538 kts 39°
2026-05-08 21:17 22.82717 40.18122 35664 ft 541 kts 39°
2026-05-08 21:18 22.85542 40.20835 35957 ft 543 kts 39°
2026-05-08 21:18 22.88343 40.23526 36252 ft 545 kts 39°
2026-05-08 21:18 22.91195 40.26266 36567 ft 547 kts 39°
2026-05-08 21:18 22.94056 40.29018 36803 ft 551 kts 39°
2026-05-08 21:19 22.96942 40.31795 37080 ft 553 kts 39°
2026-05-08 21:19 22.99805 40.34552 37362 ft 555 kts 39°
2026-05-08 21:19 23.02696 40.37337 37618 ft 557 kts 39°
2026-05-08 21:19 23.05603 40.40140 37896 ft 559 kts 39°
2026-05-08 21:20 23.08522 40.42956 38174 ft 561 kts 39°
2026-05-08 21:20 23.11448 40.45781 38509 ft 562 kts 39°
2026-05-08 21:20 23.14342 40.48577 38728 ft 564 kts 39°
2026-05-08 21:20 23.17289 40.51424 38837 ft 568 kts 39°
2026-05-08 21:21 23.20248 40.54287 38992 ft 571 kts 39°
2026-05-08 21:21 23.25848 40.60435 39041 ft 572 kts 52°
2026-05-08 21:22 23.30034 40.67736 39064 ft 564 kts 66°
2026-05-08 21:22 23.32830 40.75606 39064 ft 559 kts 73°
2026-05-08 21:23 23.35475 40.83569 39062 ft 559 kts 72°
2026-05-08 21:23 23.38180 40.91517 39066 ft 560 kts 72°
2026-05-08 21:24 23.40920 40.99428 39085 ft 562 kts 72°
2026-05-08 21:24 23.43689 41.07416 39080 ft 565 kts 72°
2026-05-08 21:25 23.46449 41.15407 39070 ft 567 kts 72°
2026-05-08 21:25 23.49234 41.23505 39084 ft 573 kts 72°
2026-05-08 21:26 23.52011 41.31589 39065 ft 568 kts 72°
2026-05-08 21:26 23.54769 41.39625 39074 ft 564 kts 72°
2026-05-08 21:27 23.57511 41.47643 39074 ft 564 kts 72°
2026-05-08 21:27 23.60239 41.55637 39083 ft 565 kts 72°
2026-05-08 21:28 23.62984 41.63690 39071 ft 565 kts 73°
2026-05-08 21:28 23.65726 41.71752 39104 ft 566 kts 73°
2026-05-08 21:29 23.68423 41.79815 39070 ft 567 kts 74°
2026-05-08 21:29 23.70972 41.87966 39079 ft 568 kts 75°
2026-05-08 21:30 23.73508 41.96083 39082 ft 569 kts 75°
2026-05-08 21:30 23.76150 42.04236 39071 ft 569 kts 73°
2026-05-08 21:31 23.78949 42.12343 39086 ft 569 kts 73°
2026-05-08 21:31 23.81281 42.19069 39078 ft 569 kts 73°
2026-05-08 21:32 23.84047 42.27152 39073 ft 567 kts 73°
2026-05-08 21:32 23.86771 42.35183 39086 ft 565 kts 73°
2026-05-08 21:33 23.89499 42.43247 39110 ft 564 kts 73°
2026-05-08 21:33 23.92221 42.51298 39091 ft 564 kts 73°
2026-05-08 21:34 23.94926 42.59311 39096 ft 564 kts 73°
2026-05-08 21:34 23.97646 42.67385 39105 ft 563 kts 74°
2026-05-08 21:35 24.00333 42.75377 39099 ft 563 kts 74°
2026-05-08 21:35 24.02929 42.83457 39105 ft 559 kts 82°
2026-05-08 21:35 24.03545 42.87611 39107 ft 547 kts 94°
2026-05-08 21:36 24.03552 42.91744 39113 ft 537 kts 103°
2026-05-08 21:36 24.03063 42.95699 39116 ft 525 kts 113°
2026-05-08 21:36 24.02057 42.99511 39121 ft 517 kts 117°
2026-05-08 21:37 23.99894 43.07027 39107 ft 518 kts 117°
2026-05-08 21:37 23.97777 43.14581 39110 ft 520 kts 116°
2026-05-08 21:38 23.95714 43.22146 39119 ft 521 kts 116°
2026-05-08 21:38 23.93653 43.29752 39132 ft 521 kts 116°
2026-05-08 21:39 23.91599 43.37299 39109 ft 520 kts 116°
2026-05-08 21:39 23.89526 43.44880 39091 ft 519 kts 116°
2026-05-08 21:40 23.87452 43.52441 39117 ft 519 kts 116°
2026-05-08 21:40 23.85384 43.59968 39104 ft 519 kts 116°
2026-05-08 21:41 23.82250 43.71347 39108 ft 522 kts 115°
2026-05-08 21:41 23.80149 43.78960 39108 ft 525 kts 115°
2026-05-08 21:42 23.78074 43.86590 39083 ft 531 kts 112°
2026-05-08 21:42 23.76829 43.94653 39092 ft 546 kts 101°
2026-05-08 21:43 23.76275 44.02948 39071 ft 549 kts 101°
2026-05-08 21:43 23.75730 44.11234 39069 ft 549 kts 101°
2026-05-08 21:44 23.75128 44.19513 39089 ft 548 kts 102°
2026-05-08 21:44 23.74493 44.27808 39069 ft 547 kts 102°
2026-05-08 21:45 23.73856 44.36085 39072 ft 545 kts 102°
2026-05-08 21:45 23.73221 44.44334 39059 ft 543 kts 102°
2026-05-08 21:46 23.72592 44.52480 39065 ft 541 kts 102°
2026-05-08 21:46 23.71954 44.60670 39072 ft 538 kts 102°
2026-05-08 21:47 23.71317 44.68796 39060 ft 535 kts 102°
2026-05-08 21:47 23.70683 44.76815 39058 ft 532 kts 102°
2026-05-08 21:48 23.70045 44.84844 39055 ft 530 kts 102°
2026-05-08 21:48 23.69403 44.92840 39060 ft 529 kts 102°
2026-05-08 21:49 23.68753 45.00870 39044 ft 530 kts 102°
2026-05-08 21:49 23.68103 45.08853 39046 ft 530 kts 102°
2026-05-08 21:50 23.67449 45.16858 39036 ft 530 kts 102°
2026-05-08 21:50 23.66791 45.24864 39044 ft 528 kts 102°
2026-05-08 21:51 23.66133 45.32840 39032 ft 527 kts 102°
2026-05-08 21:51 23.65476 45.40757 39040 ft 526 kts 102°
2026-05-08 21:52 23.64811 45.48708 39023 ft 525 kts 102°
2026-05-08 21:52 23.64147 45.56623 39001 ft 524 kts 102°
2026-05-08 21:53 23.63480 45.64527 39003 ft 522 kts 102°
2026-05-08 21:53 23.62814 45.72371 39006 ft 521 kts 102°
2026-05-08 21:54 23.62137 45.80291 38994 ft 522 kts 102°
2026-05-08 21:54 23.61465 45.88124 39002 ft 522 kts 102°
2026-05-08 21:55 23.60782 45.96029 38994 ft 523 kts 102°
2026-05-08 21:56 23.59748 46.07916 38992 ft 525 kts 102°
2026-05-08 21:56 23.59057 46.15805 38994 ft 526 kts 102°
2026-05-08 21:57 23.58356 46.23770 38985 ft 527 kts 102°
2026-05-08 21:57 23.57651 46.31722 38979 ft 526 kts 102°
2026-05-08 21:58 23.56947 46.39624 38985 ft 525 kts 102°
2026-05-08 21:58 23.56235 46.47544 38990 ft 523 kts 102°
2026-05-08 21:59 23.55529 46.55415 38990 ft 521 kts 102°
2026-05-08 21:59 23.54808 46.63264 38978 ft 518 kts 102°
2026-05-08 22:00 23.54084 46.71079 38986 ft 517 kts 102°
2026-05-08 22:00 23.53357 46.78871 38981 ft 516 kts 102°
2026-05-08 22:01 23.52635 46.86593 38982 ft 515 kts 102°
2026-05-08 22:01 23.51904 46.94366 38976 ft 515 kts 102°
2026-05-08 22:02 23.51169 47.02148 38981 ft 515 kts 102°
2026-05-08 22:02 23.50432 47.09923 38966 ft 515 kts 102°
2026-05-08 22:03 23.49693 47.17672 38955 ft 513 kts 102°
2026-05-08 22:03 23.48956 47.25359 38954 ft 511 kts 102°
2026-05-08 22:04 23.48213 47.33063 38957 ft 510 kts 102°
2026-05-08 22:04 23.47468 47.40747 38949 ft 509 kts 102°
2026-05-08 22:05 23.46723 47.48392 38952 ft 509 kts 102°
2026-05-08 22:05 23.45976 47.56041 38943 ft 509 kts 102°
2026-05-08 22:06 23.45229 47.63713 38946 ft 509 kts 102°
2026-05-08 22:06 23.44478 47.71391 38934 ft 509 kts 102°
2026-05-08 22:07 23.43727 47.79033 38942 ft 509 kts 102°
2026-05-08 22:07 23.42968 47.86712 38936 ft 509 kts 102°
2026-05-08 22:08 23.42203 47.94410 38928 ft 510 kts 102°
2026-05-08 22:08 23.41441 48.02042 38923 ft 510 kts 102°
2026-05-08 22:09 23.40670 48.09726 38926 ft 510 kts 102°
2026-05-08 22:09 23.39895 48.17410 38923 ft 510 kts 102°
2026-05-08 22:10 23.39121 48.25054 38904 ft 510 kts 101°
2026-05-08 22:10 23.38340 48.32731 38914 ft 509 kts 101°
2026-05-08 22:11 23.37876 48.40439 38925 ft 511 kts 97°
2026-05-08 22:11 23.37609 48.48125 38909 ft 511 kts 97°
2026-05-08 22:12 23.37332 48.55855 38909 ft 510 kts 97°
2026-05-08 22:12 23.37023 48.63585 38902 ft 510 kts 97°
2026-05-08 22:13 23.36701 48.71306 38901 ft 510 kts 97°
2026-05-08 22:13 23.36379 48.78970 38896 ft 510 kts 97°
2026-05-08 22:14 23.36052 48.86706 38900 ft 510 kts 97°
2026-05-08 22:14 23.35726 48.94361 38898 ft 509 kts 97°
2026-05-08 22:15 23.35393 49.02077 38892 ft 509 kts 97°
2026-05-08 22:15 23.35057 49.09767 38874 ft 508 kts 97°
2026-05-08 22:16 23.34714 49.17459 38882 ft 508 kts 97°
2026-05-08 22:16 23.34369 49.25102 38886 ft 508 kts 97°
2026-05-08 22:17 23.34019 49.32797 38880 ft 509 kts 97°
2026-05-08 22:17 23.33724 49.39204 38878 ft 509 kts 97°
2026-05-08 22:18 23.33367 49.46908 38880 ft 510 kts 97°
2026-05-08 22:18 23.33006 49.54633 38883 ft 510 kts 97°
2026-05-08 22:19 23.32643 49.62304 38875 ft 509 kts 97°
2026-05-08 22:19 23.32275 49.70001 38873 ft 509 kts 97°
2026-05-08 22:20 23.31904 49.77687 38881 ft 508 kts 97°
2026-05-08 22:20 23.31529 49.85369 38878 ft 507 kts 97°
2026-05-08 22:21 23.31150 49.93036 38875 ft 507 kts 97°
2026-05-08 22:21 23.30769 50.00682 38875 ft 507 kts 97°
2026-05-08 22:22 23.30386 50.08309 38869 ft 507 kts 97°
2026-05-08 22:22 23.29997 50.15974 38869 ft 506 kts 97°
2026-05-08 22:23 23.29604 50.23640 38871 ft 507 kts 97°
2026-05-08 22:23 23.29210 50.31247 38872 ft 506 kts 97°
2026-05-08 22:24 23.28812 50.38892 38866 ft 505 kts 97°
2026-05-08 22:24 23.28409 50.46536 38863 ft 505 kts 97°
2026-05-08 22:25 23.28004 50.54138 38870 ft 505 kts 97°
2026-05-08 22:25 23.27594 50.61778 38862 ft 505 kts 97°
2026-05-08 22:26 23.27182 50.69375 38862 ft 505 kts 97°
2026-05-08 22:26 23.26764 50.77023 38862 ft 505 kts 97°
2026-05-08 22:27 23.26346 50.84613 38863 ft 505 kts 97°
2026-05-08 22:27 23.25921 50.92255 38856 ft 505 kts 97°
2026-05-08 22:28 23.25496 50.99826 38857 ft 504 kts 96°
2026-05-08 22:28 23.25065 51.07454 38853 ft 503 kts 96°
2026-05-08 22:29 23.24633 51.15021 38855 ft 502 kts 96°
2026-05-08 22:29 23.24189 51.22612 38854 ft 502 kts 97°
2026-05-08 22:30 23.23738 51.30178 38854 ft 501 kts 97°
2026-05-08 22:30 23.23288 51.37705 38831 ft 501 kts 97°
2026-05-08 22:31 23.22433 51.45180 38828 ft 496 kts 106°
2026-05-08 22:31 23.20388 51.52289 38827 ft 490 kts 116°
2026-05-08 22:32 23.17710 51.59065 38819 ft 489 kts 117°
2026-05-08 22:32 23.15016 51.65847 38827 ft 489 kts 116°
2026-05-08 22:33 23.12353 51.72654 38823 ft 489 kts 116°
2026-05-08 22:33 23.09719 51.79421 38822 ft 488 kts 116°
2026-05-08 22:34 23.07068 51.86219 38822 ft 488 kts 116°
2026-05-08 22:34 23.04409 51.93023 38821 ft 488 kts 116°
2026-05-08 22:35 23.01768 51.99769 38822 ft 488 kts 116°
2026-05-08 22:35 22.99103 52.06566 38819 ft 488 kts 116°
2026-05-08 22:36 22.96453 52.13322 38819 ft 488 kts 116°
2026-05-08 22:36 22.93786 52.20111 38819 ft 488 kts 116°
2026-05-08 22:37 22.91132 52.26861 38817 ft 488 kts 116°
2026-05-08 22:37 22.88463 52.33639 38814 ft 488 kts 116°
2026-05-08 22:38 22.85797 52.40400 38816 ft 487 kts 116°
2026-05-08 22:38 22.83221 52.47207 38820 ft 489 kts 111°
2026-05-08 22:39 22.81646 52.54359 38809 ft 493 kts 100°
2026-05-08 22:39 22.80791 52.61739 38823 ft 493 kts 99°
2026-05-08 22:40 22.79963 52.69074 38818 ft 492 kts 100°
2026-05-08 22:40 22.79090 52.76439 38819 ft 492 kts 100°
2026-05-08 22:41 22.78192 52.83808 38820 ft 493 kts 100°
2026-05-08 22:41 22.77290 52.91152 38814 ft 493 kts 100°
2026-05-08 22:42 22.76385 52.98520 38821 ft 493 kts 100°
2026-05-08 22:42 22.75476 53.05897 38821 ft 492 kts 100°
2026-05-08 22:43 22.74570 53.13219 38818 ft 492 kts 100°
2026-05-08 22:43 22.73662 53.20537 38816 ft 492 kts 100°
2026-05-08 22:44 22.72744 53.27898 38815 ft 492 kts 100°
2026-05-08 22:44 22.71824 53.35255 38820 ft 492 kts 100°
2026-05-08 22:45 22.70908 53.42553 38817 ft 492 kts 100°
2026-05-08 22:45 22.69981 53.49915 38815 ft 492 kts 100°
2026-05-08 22:46 22.69051 53.57262 38816 ft 491 kts 100°
2026-05-08 22:46 22.68123 53.64562 38813 ft 491 kts 100°
2026-05-08 22:47 22.67186 53.71899 38820 ft 490 kts 100°
2026-05-08 22:47 22.66253 53.79180 38812 ft 490 kts 100°
2026-05-08 22:48 22.65314 53.86490 38813 ft 489 kts 100°
2026-05-08 22:48 22.64376 53.93761 38814 ft 489 kts 100°
2026-05-08 22:49 22.63431 54.01060 38810 ft 489 kts 100°
2026-05-08 22:49 22.62013 54.11973 38813 ft 489 kts 100°
2026-05-08 22:50 22.61059 54.19276 38812 ft 490 kts 100°
2026-05-08 22:50 22.60107 54.26546 38810 ft 489 kts 100°
2026-05-08 22:51 22.59146 54.33866 38815 ft 489 kts 100°
2026-05-08 22:51 22.58190 54.41132 38815 ft 489 kts 100°
2026-05-08 22:52 22.57233 54.48387 38809 ft 489 kts 100°
2026-05-08 22:52 22.56266 54.55689 38805 ft 489 kts 100°
2026-05-08 22:53 22.55303 54.62940 38805 ft 488 kts 100°
2026-05-08 22:53 22.54331 54.70228 38811 ft 488 kts 100°
2026-05-08 22:54 22.53357 54.77509 38799 ft 489 kts 100°
2026-05-08 22:54 22.52383 54.84760 38805 ft 489 kts 100°
2026-05-08 22:55 22.51401 54.92043 38807 ft 489 kts 100°
2026-05-08 22:55 22.50422 54.99282 38811 ft 488 kts 100°
2026-05-08 22:56 22.49435 55.06557 38810 ft 488 kts 100°
2026-05-08 22:56 22.48444 55.13836 38809 ft 488 kts 100°
2026-05-08 22:57 22.47458 55.21054 38814 ft 487 kts 100°
2026-05-08 22:57 22.46464 55.28315 38818 ft 487 kts 100°
2026-05-08 22:58 22.45818 55.35626 38815 ft 489 kts 88°
2026-05-08 22:58 22.47051 55.42817 38821 ft 492 kts 71°
2026-05-08 22:59 22.49638 55.49692 38827 ft 493 kts 68°
2026-05-08 22:59 22.52293 55.56497 38822 ft 494 kts 68°
2026-05-08 23:00 22.54907 55.63366 38832 ft 494 kts 69°
2026-05-08 23:00 22.57490 55.70273 38833 ft 495 kts 69°
2026-05-08 23:01 22.60065 55.77190 38830 ft 495 kts 69°
2026-05-08 23:01 22.62628 55.84078 38833 ft 494 kts 69°
2026-05-08 23:02 22.65198 55.90987 38837 ft 494 kts 69°
2026-05-08 23:02 22.67760 55.97886 38840 ft 494 kts 69°
2026-05-08 23:03 22.70321 56.04791 38846 ft 493 kts 69°
2026-05-08 23:03 22.72863 56.11656 38852 ft 493 kts 69°
2026-05-08 23:04 22.75414 56.18556 38852 ft 493 kts 69°
2026-05-08 23:04 22.77948 56.25421 38853 ft 492 kts 69°
2026-05-08 23:05 22.80069 56.31176 38852 ft 492 kts 69°
2026-05-08 23:05 22.82899 56.39254 38856 ft 492 kts 74°
2026-05-08 23:06 22.84176 56.45267 38872 ft 491 kts 79°
2026-05-08 23:06 22.85494 56.52537 38876 ft 492 kts 79°
2026-05-08 23:07 22.86830 56.59802 38873 ft 492 kts 79°
2026-05-08 23:07 22.88194 56.67050 38886 ft 492 kts 79°
2026-05-08 23:08 22.89570 56.74330 38900 ft 492 kts 79°
2026-05-08 23:08 22.90947 56.81637 38896 ft 493 kts 79°
2026-05-08 23:09 22.92307 56.88885 38909 ft 492 kts 79°
2026-05-08 23:09 22.93671 56.96173 38914 ft 492 kts 79°
2026-05-08 23:10 22.95030 57.03456 38917 ft 492 kts 79°
2026-05-08 23:10 22.96377 57.10691 38928 ft 492 kts 79°
2026-05-08 23:11 22.97729 57.17977 38926 ft 492 kts 79°
2026-05-08 23:11 22.99080 57.25275 38931 ft 492 kts 79°
2026-05-08 23:12 23.00623 57.32473 38929 ft 492 kts 72°
2026-05-08 23:12 23.03026 57.39448 38929 ft 492 kts 69°
2026-05-08 23:13 23.05501 57.46351 38927 ft 493 kts 69°
2026-05-08 23:13 23.07954 57.53317 38921 ft 493 kts 69°
2026-05-08 23:14 23.10365 57.60260 38908 ft 493 kts 70°
2026-05-08 23:14 23.12786 57.67251 38905 ft 494 kts 70°
2026-05-08 23:15 23.15205 57.74244 38881 ft 494 kts 69°
2026-05-08 23:15 23.17608 57.81198 38891 ft 494 kts 69°
2026-05-08 23:16 23.20025 57.88205 38854 ft 494 kts 69°
2026-05-08 23:16 23.22437 57.95207 38832 ft 494 kts 69°
2026-05-08 23:17 23.24836 58.02177 38831 ft 494 kts 69°
2026-05-08 23:17 23.27430 58.09083 38797 ft 494 kts 67°
2026-05-08 23:18 23.30131 58.15969 38785 ft 494 kts 67°
2026-05-08 23:18 23.32790 58.22848 38780 ft 495 kts 67°
2026-05-08 23:19 23.35435 58.29776 38765 ft 496 kts 67°
2026-05-08 23:19 23.38083 58.36727 38757 ft 496 kts 67°
2026-05-08 23:20 23.40715 58.43635 38757 ft 496 kts 67°
2026-05-08 23:20 23.43306 58.50602 38743 ft 496 kts 68°
2026-05-08 23:21 23.45848 58.57570 38745 ft 497 kts 68°
2026-05-08 23:21 23.48406 58.64577 38739 ft 497 kts 68°
2026-05-08 23:22 23.50971 58.71591 38729 ft 498 kts 68°
2026-05-08 23:22 23.53507 58.78529 38726 ft 498 kts 68°
2026-05-08 23:23 23.56082 58.85586 38725 ft 497 kts 68°
2026-05-08 23:23 23.58637 58.92600 38726 ft 497 kts 68°
2026-05-08 23:24 23.61172 58.99573 38722 ft 497 kts 68°
2026-05-08 23:24 23.63720 59.06590 38717 ft 497 kts 68°
2026-05-08 23:25 23.66247 59.13565 38721 ft 496 kts 68°
2026-05-08 23:25 23.68785 59.20578 38728 ft 496 kts 68°
2026-05-08 23:26 23.71319 59.27591 38734 ft 496 kts 68°
2026-05-08 23:26 23.73846 59.34598 38732 ft 496 kts 68°
2026-05-08 23:27 23.76362 59.41586 38735 ft 496 kts 68°
2026-05-08 23:27 23.78869 59.48617 38733 ft 496 kts 70°
2026-05-08 23:28 23.80579 59.55920 38737 ft 497 kts 80°
2026-05-08 23:28 23.81702 59.63318 38734 ft 497 kts 80°
2026-05-08 23:29 23.82872 59.70790 38735 ft 498 kts 80°
2026-05-08 23:29 23.84082 59.78246 38734 ft 498 kts 79°
2026-05-08 23:30 23.85267 59.85664 38737 ft 499 kts 80°
2026-05-08 23:30 23.86440 59.93138 38735 ft 499 kts 80°
2026-05-08 23:31 23.87612 60.00630 38736 ft 500 kts 80°
2026-05-08 23:31 23.88784 60.08125 38731 ft 500 kts 80°
2026-05-08 23:32 23.89947 60.15581 38731 ft 500 kts 80°
2026-05-08 23:32 23.91114 60.23091 38730 ft 501 kts 80°
2026-05-08 23:33 23.92272 60.30561 38732 ft 501 kts 80°
2026-05-08 23:33 23.93436 60.38101 38731 ft 501 kts 80°
2026-05-08 23:34 23.94592 60.45615 38728 ft 501 kts 80°
2026-05-08 23:34 23.95740 60.53097 38729 ft 501 kts 80°
2026-05-08 23:35 23.96891 60.60630 38728 ft 501 kts 80°
2026-05-08 23:35 23.98031 60.68111 38726 ft 501 kts 80°
2026-05-08 23:36 23.99178 60.75662 38720 ft 502 kts 80°
2026-05-08 23:36 24.00317 60.83194 38723 ft 502 kts 80°
2026-05-08 23:37 24.01447 60.90682 38721 ft 502 kts 80°
2026-05-08 23:37 24.02582 60.98237 38720 ft 502 kts 80°
2026-05-08 23:38 24.03713 61.05789 38720 ft 502 kts 80°
2026-05-08 23:38 24.04832 61.13284 38718 ft 502 kts 80°
2026-05-08 23:39 24.05957 61.20851 38721 ft 502 kts 80°
2026-05-08 23:39 24.07072 61.28368 38717 ft 502 kts 80°
2026-05-08 23:40 24.08191 61.35940 38713 ft 503 kts 80°
2026-05-08 23:40 24.09301 61.43440 38715 ft 503 kts 80°
2026-05-08 23:41 24.10419 61.51008 38716 ft 503 kts 80°
2026-05-08 23:41 24.11532 61.58580 38714 ft 503 kts 80°
2026-05-08 23:42 24.12641 61.66154 38718 ft 503 kts 80°
2026-05-08 23:42 24.13738 61.73673 38714 ft 503 kts 81°
2026-05-08 23:43 24.14837 61.81246 38714 ft 503 kts 81°
2026-05-08 23:43 24.15883 61.88851 38715 ft 503 kts 81°
2026-05-08 23:44 24.16894 61.96398 38716 ft 503 kts 81°
2026-05-08 23:44 24.17912 62.03984 38719 ft 504 kts 81°
2026-05-08 23:45 24.18930 62.11553 38716 ft 504 kts 81°
2026-05-08 23:45 24.19949 62.19147 38715 ft 504 kts 81°
2026-05-08 23:46 24.20968 62.26766 38713 ft 504 kts 81°
2026-05-08 23:46 24.21979 62.34362 38722 ft 504 kts 81°
2026-05-08 23:47 24.22984 62.41936 38716 ft 504 kts 81°
2026-05-08 23:47 24.23991 62.49564 38714 ft 505 kts 81°
2026-05-08 23:48 24.24994 62.57188 38717 ft 505 kts 81°
2026-05-08 23:48 24.25990 62.64784 38718 ft 505 kts 81°
2026-05-08 23:49 24.26986 62.72412 38719 ft 505 kts 81°
2026-05-08 23:49 24.27978 62.80044 38720 ft 506 kts 81°
2026-05-08 23:50 24.28969 62.87696 38719 ft 506 kts 81°
2026-05-08 23:50 24.29948 62.95287 38724 ft 506 kts 81°
2026-05-08 23:51 24.30935 63.02971 38722 ft 507 kts 81°
2026-05-08 23:51 24.31911 63.10598 38725 ft 507 kts 81°
2026-05-08 23:52 24.32886 63.18251 38725 ft 506 kts 81°
2026-05-08 23:52 24.33858 63.25908 38725 ft 506 kts 81°
2026-05-08 23:53 24.34819 63.33515 38726 ft 505 kts 81°
2026-05-08 23:53 24.35780 63.41147 38725 ft 505 kts 81°
2026-05-08 23:54 24.36731 63.48736 38725 ft 505 kts 81°
2026-05-08 23:55 24.38159 63.60183 38727 ft 505 kts 81°
2026-05-08 23:55 24.38949 63.66552 38725 ft 505 kts 81°
2026-05-08 23:56 24.39895 63.74203 38730 ft 505 kts 81°
2026-05-08 23:56 24.40833 63.81824 38726 ft 506 kts 81°
2026-05-08 23:57 24.41773 63.89493 38727 ft 507 kts 81°
2026-05-08 23:57 24.42706 63.97136 38727 ft 507 kts 81°
2026-05-08 23:58 24.43641 64.04834 38728 ft 507 kts 81°
2026-05-08 23:58 24.44566 64.12478 38728 ft 508 kts 81°
2026-05-08 23:59 24.45493 64.20173 38729 ft 508 kts 81°
2026-05-08 23:59 24.46418 64.27878 38734 ft 509 kts 81°
2026-05-09 00:00 24.47339 64.35591 38734 ft 509 kts 81°
2026-05-09 00:00 24.48252 64.43272 38735 ft 510 kts 81°
2026-05-09 00:01 24.49168 64.51013 38738 ft 510 kts 81°
2026-05-09 00:01 24.50074 64.58697 38737 ft 510 kts 81°
2026-05-09 00:02 24.50980 64.66418 38739 ft 510 kts 81°
2026-05-09 00:02 24.51883 64.74153 38742 ft 510 kts 81°
2026-05-09 00:03 24.52783 64.81884 38742 ft 510 kts 81°
2026-05-09 00:03 24.53538 64.89632 38685 ft 511 kts 83°
2026-05-09 00:03 24.53832 64.93560 38135 ft 517 kts 84°
2026-05-09 00:04 24.54109 64.97493 37631 ft 512 kts 84°
2026-05-09 00:04 24.54377 65.01318 37155 ft 506 kts 83°
2026-05-09 00:04 24.54655 65.05159 36686 ft 501 kts 83°
2026-05-09 00:04 24.54939 65.08957 36225 ft 496 kts 83°
2026-05-09 00:05 24.55228 65.12741 35781 ft 492 kts 83°
2026-05-09 00:05 24.55516 65.16472 35330 ft 488 kts 83°
2026-05-09 00:05 24.55799 65.20135 34863 ft 485 kts 82°
2026-05-09 00:05 24.56084 65.23829 34397 ft 482 kts 82°
2026-05-09 00:06 24.56366 65.27495 33908 ft 479 kts 82°
2026-05-09 00:06 24.56645 65.31146 33386 ft 477 kts 82°
2026-05-09 00:06 24.56918 65.34731 32882 ft 474 kts 82°
2026-05-09 00:06 24.57191 65.38327 32413 ft 471 kts 82°
2026-05-09 00:07 24.57461 65.41911 31927 ft 467 kts 82°
2026-05-09 00:07 24.57727 65.45455 31459 ft 464 kts 82°
2026-05-09 00:07 24.57993 65.48992 30994 ft 461 kts 82°
2026-05-09 00:07 24.58251 65.52455 30527 ft 459 kts 82°
2026-05-09 00:08 24.58511 65.55939 30057 ft 457 kts 82°
2026-05-09 00:08 24.58769 65.59411 29533 ft 455 kts 82°
2026-05-09 00:08 24.59025 65.62856 29016 ft 452 kts 82°
2026-05-09 00:08 24.59278 65.66293 28509 ft 449 kts 82°
2026-05-09 00:09 24.59529 65.69703 28012 ft 445 kts 82°
2026-05-09 00:09 24.59778 65.73104 27536 ft 442 kts 83°
2026-05-09 00:09 24.60021 65.76420 27062 ft 439 kts 83°
2026-05-09 00:09 24.60264 65.79755 26597 ft 436 kts 83°
2026-05-09 00:10 24.60505 65.83071 26122 ft 433 kts 83°
2026-05-09 00:10 24.60744 65.86361 25652 ft 430 kts 83°
2026-05-09 00:10 24.60978 65.89592 25185 ft 428 kts 83°
2026-05-09 00:10 24.61213 65.92854 24706 ft 425 kts 83°
2026-05-09 00:11 24.61445 65.96086 24236 ft 423 kts 83°
2026-05-09 00:11 24.61676 65.99306 23766 ft 421 kts 83°
2026-05-09 00:11 24.61904 66.02506 23293 ft 419 kts 83°
2026-05-09 00:11 24.62132 66.05704 22740 ft 417 kts 83°
2026-05-09 00:12 24.62354 66.08834 22254 ft 413 kts 83°
2026-05-09 00:12 24.62576 66.11983 21766 ft 409 kts 83°
2026-05-09 00:12 24.62795 66.15091 21300 ft 406 kts 83°
2026-05-09 00:12 24.63013 66.18181 20832 ft 402 kts 83°
2026-05-09 00:13 24.63227 66.21233 20369 ft 399 kts 83°
2026-05-09 00:13 24.63439 66.24261 19907 ft 396 kts 83°
2026-05-09 00:13 24.63646 66.27237 19459 ft 393 kts 83°
2026-05-09 00:13 24.63854 66.30222 18988 ft 391 kts 83°
2026-05-09 00:14 24.64062 66.33210 18515 ft 389 kts 83°
2026-05-09 00:14 24.64267 66.36177 18050 ft 387 kts 83°
2026-05-09 00:14 24.64469 66.39100 17532 ft 385 kts 83°
2026-05-09 00:14 24.64670 66.42025 17058 ft 381 kts 83°
2026-05-09 00:15 24.64869 66.44928 16586 ft 378 kts 83°
2026-05-09 00:15 24.65063 66.47773 16142 ft 375 kts 83°
2026-05-09 00:15 24.65258 66.50622 15695 ft 372 kts 83°
2026-05-09 00:15 24.65451 66.53459 15264 ft 370 kts 83°
2026-05-09 00:16 24.65641 66.56257 14826 ft 367 kts 83°
2026-05-09 00:16 24.65830 66.59059 14470 ft 362 kts 84°
2026-05-09 00:16 24.66012 66.61758 14138 ft 356 kts 84°
2026-05-09 00:16 24.66193 66.64450 13810 ft 350 kts 84°
2026-05-09 00:17 24.66371 66.67093 13477 ft 344 kts 84°
2026-05-09 00:17 24.66545 66.69692 13126 ft 339 kts 84°
2026-05-09 00:17 24.66718 66.72270 12889 ft 331 kts 84°
2026-05-09 00:17 24.66883 66.74754 12806 ft 318 kts 84°
2026-05-09 00:18 24.67041 66.77129 12720 ft 306 kts 84°
2026-05-09 00:18 24.67192 66.79405 12586 ft 297 kts 83°
2026-05-09 00:18 24.67340 66.81638 12393 ft 290 kts 83°
2026-05-09 00:18 24.67487 66.83839 12065 ft 287 kts 83°
2026-05-09 00:19 24.67631 66.86010 11685 ft 288 kts 83°
2026-05-09 00:19 24.67779 66.88235 11301 ft 287 kts 83°
2026-05-09 00:19 24.67921 66.90392 10958 ft 287 kts 84°
2026-05-09 00:19 24.68066 66.92587 10608 ft 287 kts 84°
2026-05-09 00:20 24.68208 66.94769 10268 ft 286 kts 83°
2026-05-09 00:20 24.68351 66.96948 9929 ft 285 kts 84°
2026-05-09 00:20 24.68493 66.99117 9600 ft 284 kts 84°
2026-05-09 00:20 24.68634 67.01288 9237 ft 283 kts 84°
2026-05-09 00:21 24.68772 67.03422 8894 ft 282 kts 83°
2026-05-09 00:21 24.69174 67.05476 8490 ft 272 kts 61°
2026-05-09 00:21 24.70123 67.07245 8159 ft 266 kts 56°
2026-05-09 00:21 24.71080 67.08965 7876 ft 262 kts 57°
2026-05-09 00:22 24.72023 67.10682 7495 ft 262 kts 57°
2026-05-09 00:22 24.72962 67.12400 7137 ft 262 kts 57°
2026-05-09 00:22 24.73901 67.14124 6777 ft 262 kts 57°
2026-05-09 00:22 24.74835 67.15843 6447 ft 261 kts 57°
2026-05-09 00:23 24.75742 67.17517 6276 ft 253 kts 57°
2026-05-09 00:23 24.76628 67.19157 6091 ft 246 kts 57°
2026-05-09 00:23 24.77491 67.20755 5875 ft 241 kts 57°
2026-05-09 00:23 24.78342 67.22331 5578 ft 240 kts 57°
2026-05-09 00:24 24.79196 67.23911 5247 ft 239 kts 57°
2026-05-09 00:24 24.80030 67.25458 5128 ft 227 kts 58°
2026-05-09 00:24 24.80803 67.26893 4994 ft 214 kts 57°
2026-05-09 00:24 24.81552 67.28284 4760 ft 208 kts 57°
2026-05-09 00:25 24.82288 67.29649 4446 ft 206 kts 57°
2026-05-09 00:25 24.83020 67.31006 4100 ft 206 kts 58°
2026-05-09 00:25 24.83755 67.32369 3735 ft 207 kts 57°
2026-05-09 00:25 24.84479 67.33713 3408 ft 207 kts 57°
2026-05-09 00:26 24.85220 67.35089 3088 ft 206 kts 58°
2026-05-09 00:26 24.85946 67.36439 2739 ft 208 kts 58°
2026-05-09 00:26 24.86682 67.37807 2435 ft 206 kts 58°
2026-05-09 00:26 24.87478 67.39090 2129 ft 200 kts 40°
2026-05-09 00:27 24.88707 67.39640 1983 ft 191 kts 358°
2026-05-09 00:27 24.90021 67.39436 1984 ft 193 kts 342°
2026-05-09 00:27 24.91318 67.39056 1977 ft 192 kts 341°
2026-05-09 00:27 24.92576 67.38678 1945 ft 187 kts 341°
2026-05-09 00:28 24.93835 67.38295 1964 ft 186 kts 340°
2026-05-09 00:28 24.94942 67.37689 1952 ft 173 kts 310°
2026-05-09 00:28 24.95457 67.36545 1978 ft 165 kts 278°
2026-05-09 00:28 24.95294 67.35375 1985 ft 149 kts 247°
2026-05-09 00:29 24.95021 67.34272 1968 ft 146 kts 261°
2026-05-09 00:29 24.94810 67.33170 1972 ft 147 kts 255°
2026-05-09 00:29 24.94553 67.32084 1957 ft 146 kts 255°
2026-05-09 00:29 24.94297 67.31021 1972 ft 145 kts 255°
2026-05-09 00:30 24.94029 67.29944 1954 ft 146 kts 255°
2026-05-09 00:30 24.93759 67.28872 1975 ft 145 kts 254°
2026-05-09 00:30 24.93487 67.27801 1934 ft 145 kts 255°
2026-05-09 00:30 24.93226 67.26766 1739 ft 137 kts 255°
2026-05-09 00:31 24.92975 67.25769 1584 ft 133 kts 254°
2026-05-09 00:31 24.92725 67.24785 1414 ft 132 kts 254°
2026-05-09 00:31 24.92476 67.23804 1232 ft 135 kts 255°
2026-05-09 00:31 24.92225 67.22808 1083 ft 136 kts 255°
2026-05-09 00:32 24.91966 67.21794 871 ft 139 kts 254°
2026-05-09 00:32 24.91712 67.20788 676 ft 135 kts 255°
2026-05-09 00:32 24.91462 67.19784 540 ft 136 kts 253°
2026-05-09 00:32 24.91206 67.18768 365 ft 138 kts 255°
2026-05-09 00:33 24.90945 67.17754 183 ft 136 kts 254°
2026-05-09 00:33 24.90698 67.16771 110 ft 124 kts 251°
2026-05-09 00:33 24.90503 67.16003 109 ft 84 kts 254°
2026-05-09 00:33 24.90384 67.15538 110 ft 45 kts 255°
2026-05-09 00:34 24.90324 67.15298 109 ft 27 kts 254°
2026-05-09 00:34 24.90291 67.15168 108 ft 15 kts 254°
2026-05-09 00:34 24.90262 67.15078 109 ft 11 kts 234°
2026-05-09 00:34 24.90200 67.15089 108 ft 12 kts 119°
2026-05-09 00:35 24.90170 67.15180 107 ft 14 kts 105°
2026-05-09 00:35 24.90152 67.15260 106 ft 4 kts 104°
2026-05-09 00:35 24.90143 67.15302 106 ft 7 kts 101°
2026-05-09 00:35 24.90141 67.15361 108 ft 9 kts 85°
2026-05-09 00:36 24.90156 67.15433 107 ft 10 kts 75°
2026-05-09 00:36 24.90177 67.15515 107 ft 12 kts 74°
2026-05-09 00:36 24.90200 67.15605 106 ft 13 kts 74°
2026-05-09 00:36 24.90225 67.15705 107 ft 14 kts 75°
2026-05-09 00:37 24.90253 67.15814 107 ft 15 kts 74°
2026-05-09 00:37 24.90283 67.15932 107 ft 16 kts 74°
2026-05-09 00:37 24.90313 67.16051 107 ft 16 kts 75°
2026-05-09 00:37 24.90342 67.16168 107 ft 16 kts 74°
2026-05-09 00:38 24.90366 67.16262 107 ft 10 kts 75°
2026-05-09 00:38 24.90366 67.16335 107 ft 10 kts 126°
2026-05-09 00:38 24.90310 67.16387 106 ft 10 kts 122°
2026-05-09 00:38 24.90307 67.16468 106 ft 11 kts 78°
2026-05-09 00:39 24.90327 67.16553 107 ft 10 kts 75°
2026-05-09 00:39 24.90347 67.16633 107 ft 12 kts 75°
2026-05-09 00:39 24.90365 67.16706 106 ft 8 kts 74°
2026-05-09 00:39 24.90381 67.16769 109 ft 9 kts 74°
2026-05-09 00:40 24.90396 67.16829 108 ft 5 kts 75°
2026-05-09 00:40 24.90393 67.16868 109 ft 6 kts 121°
2026-05-09 00:40 24.90375 67.16882 108 ft 3 kts 150°
2026-05-09 00:41 24.90340 67.16898 109 ft 4 kts 162°
2026-05-09 00:41 24.90328 67.16902 107 ft 0 kts 163°
2026-05-09 00:41 24.90327 67.16902 107 ft 0 kts 163°